Victoria, British Columbia

12:59 AM PDT on June 29, 2017 (GMT -0700)
Victoria International

Weather History for CYYJ - January, 2013

Change the Weather History Date:

Sunday, January 27, 2013

  Actual Average Record
Temperature  
Mean Temperature 36 °F -  
Max Temperature 43 °F 47 °F 56 °F (2015)
Min Temperature 30 °F 34 °F 23 °F (1997)
Degree Days  
Heating Degree Days 28    
Moisture  
Dew Point 35 °F    
Average Humidity 92    
Maximum Humidity 100    
Minimum Humidity 77    
Precipitation  
Precipitation 0.01 in 0.14 in - ()
Sea Level Pressure  
Sea Level Pressure 29.99 in    
Wind  
Wind Speed 3 mph ()    
Max Wind Speed 10 mph    
Max Gust Speed -    
Visibility 12.2 miles    
Events Fog , Rain    
Averages and records for this station are not official NWS values.
T = Trace of Precipitation, MM = Missing Value Source: Averaged Metar Reports

Daily Weather History Graph

Daily Weather History Graph

Search for Another Location

Airport or City:

Trip Planner

Search our weather history database for the weather conditions in past years. The results will help you decide how hot, cold, wet, or windy it might be!

Date:

Astronomy

Jan. 27, 2013 Rise Set
Actual Time 7:49 AM PST 5:04 PM PST
Civil Twilight 7:14 AM PST 5:38 PM PST
Nautical Twilight 6:36 AM PST 6:17 PM PST
Astronomical Twilight 5:59 AM PST 6:54 PM PST
Moon 6:13 PM PST (1/27) 7:37 AM PST (1/27)
Length of Visible Light 10h 24m
Length of Day
9h 15m
Full, 100% of the Moon is Illuminated
Jan 27
Full
Feb 3
Last Quarter
Feb 9
New
Feb 17
First Quarter
Feb 25
Full

Hourly Weather History & Observations

Time (PST) Temp. Windchill Dew Point Humidity Pressure Visibility Wind Dir Wind Speed Gust Speed Precip Events Conditions
12:00 AM 35.6 °F - 35.6 °F 100% 30.01 in 20.0 mi Calm Calm - N/A   Mostly Cloudy
1:00 AM 35.6 °F 31.7 °F 33.8 °F 93% 30.02 in 0.5 mi SW 4.6 mph - N/A Fog Fog
1:20 AM 35.6 °F 32.8 °F - N/A% - 8.0 mi WSW 3.5 mph - N/A   Partly Cloudy
2:00 AM 32.0 °F 27.5 °F 32.0 °F 100% 30.02 in 8.0 mi WNW 4.6 mph - N/A   Partly Cloudy
3:00 AM 33.8 °F 30.8 °F 32.0 °F 93% 30.02 in 0.2 mi WSW 3.5 mph - N/A Fog Fog
4:00 AM 33 °F - 33 °F 97% 30.02 in 1 mi West 3.5 mph - -   Mist
4:00 AM 33.8 °F - 32.0 °F 93% 30.02 in 1.0 mi West 2.3 mph - N/A   Overcast
4:15 AM 33.8 °F 30.8 °F - N/A% - 0.2 mi WSW 3.5 mph - N/A Fog Fog
4:40 AM 32.0 °F - - N/A% - 1.0 mi Calm Calm - N/A   Mostly Cloudy
4:45 AM 33.8 °F 30.8 °F - N/A% - 5.0 mi West 3.5 mph - N/A   Mostly Cloudy
5:00 AM 32.0 °F 27.5 °F 32.0 °F 100% 30.01 in 3.0 mi SW 4.6 mph - N/A   Mostly Cloudy
6:00 AM 32.0 °F - 30.2 °F 93% 30.01 in 20.0 mi Calm Calm - N/A   Mostly Cloudy
7:00 AM 33.8 °F - 32.0 °F 93% 30.00 in 20.0 mi WSW 2.3 mph - N/A   Overcast
8:00 AM 33.8 °F - 32.0 °F 93% 30.00 in 20.0 mi WSW 2.3 mph - N/A   Overcast
8:49 AM 33.8 °F - - N/A% - 20.0 mi Calm Calm - N/A Rain Light Rain
9:00 AM 33.8 °F - 33.8 °F 100% 30.01 in 20.0 mi Calm Calm - N/A Rain Light Rain
10:00 AM 36 °F - 35 °F 96% 30.01 in 19 mi ESE 3.5 mph - - Rain Light Rain
10:00 AM 35.6 °F 32.8 °F 35.6 °F 100% 30.01 in 20.0 mi ESE 3.5 mph - N/A Rain Light Rain
11:00 AM 39.2 °F 35.0 °F 39.2 °F 100% 30.01 in 20.0 mi SE 5.8 mph - N/A Rain Light Rain
12:00 PM 41.0 °F 36.4 °F 39.2 °F 93% 29.99 in 30.0 mi SE 6.9 mph - N/A Rain Light Rain
1:00 PM 42.8 °F 39.3 °F 39.2 °F 87% 29.97 in 20.0 mi SE 5.8 mph - N/A   Overcast
2:00 PM 42.8 °F 37.0 °F 37.4 °F 81% 29.96 in 30.0 mi SSE 10.4 mph - N/A   Overcast
3:00 PM 42.8 °F 38.0 °F 37.4 °F 81% 29.96 in 30.0 mi South 8.1 mph - N/A   Mostly Cloudy
4:00 PM 43 °F - 38 °F 77% 29.96 in 28 mi South 9.2 mph - -   Partly Cloudy
4:00 PM 42.8 °F 37.5 °F 39.2 °F 87% 29.96 in 30.0 mi South 9.2 mph - N/A   Mostly Cloudy
5:00 PM 42.8 °F - 37.4 °F 81% 29.96 in 30.0 mi ESE 2.3 mph - N/A   Overcast
6:00 PM 41.0 °F 39.0 °F 37.4 °F 87% 29.96 in 30.0 mi SSE 3.5 mph - N/A   Mostly Cloudy
7:00 PM 39.2 °F - 35.6 °F 87% 29.96 in 30.0 mi Calm Calm - N/A   Mostly Cloudy
8:00 PM 37.4 °F - 35.6 °F 93% 29.97 in 30.0 mi NNW 2.3 mph - N/A   Mostly Cloudy
9:00 PM 39.2 °F - 35.6 °F 87% 29.97 in 30.0 mi Calm Calm - N/A   Mostly Cloudy
9:19 PM 35.6 °F 32.8 °F - N/A% - 30.0 mi West 3.5 mph - N/A   Mostly Cloudy
10:00 PM 35 °F - 33 °F 90% 29.97 in 19 mi WNW 6.9 mph - -   Scattered Clouds
10:00 PM 35.6 °F 29.9 °F 33.8 °F 93% 29.97 in 20.0 mi West 6.9 mph - N/A   Mostly Cloudy
11:00 PM 35.6 °F 32.8 °F 33.8 °F 93% 29.98 in 15.0 mi SW 3.5 mph - N/A   Mostly Cloudy